Regional Weather Roundup
Issued by NWS

Home | Current Version | Previous Version | Text Only | Print | Product List | Glossary Off
Versions: 1 2 3 4 5 6 7 8 9 10 11 12 13 14 15 16 17 18 19 20 21 22 23 24 25 26 27 28 29 30 31 32 33 34 35 36 37 38 39 40 41 42 43 44 45 46 47 48 49 50

000
ASUS43 KFSD 261610
RWRSD

WEATHER ROUNDUP FOR SOUTH DAKOTA
NATIONAL WEATHER SERVICE SIOUX FALLS SD
1100 AM CDT THU MAY 26 2016

NOTE: "FAIR" INDICATES FEW OR NO CLOUDS BELOW 12,000 FEET WITH NO
SIGNIFICANT WEATHER AND/OR OBSTRUCTIONS TO VISIBILITY.


SDZ001>005-009-010-012>017-261700-
NORTHWEST AND NORTH CENTRAL SOUTH DAKOTA

CITY           SKY/WX    TMP DP  RH WIND       PRES   REMARKS
BUFFALO          N/A     62  42  47 W17G23    29.81F
FAITH            N/A     65  44  46 NW13      29.86F
MOBRIDGE       SUNNY     66  50  56 S10       29.83F
$$

SDZ012>016-024>037-041>051-057-063-072>074-261700-
SOUTHWEST AND SOUTH CENTRAL SOUTH DAKOTA

CITY           SKY/WX    TMP DP  RH WIND       PRES   REMARKS
RAPID CTY ARPT MOSUNNY   65  44  46 N14       29.90S
PIERRE         MOSUNNY   68  55  63 SE8       29.86R
CUSTER         SUNNY     59  34  39 SW9G18    29.96S
ELLSWORTH AFB  PTSUNNY   62  43  48 N10       29.90S
PHILIP         SUNNY     67  52  58 VRB5      29.88R
PINE RIDGE     SUNNY     64  46  52 W7        29.91F
WINNER         FAIR      71  51  49 S13       29.89S
$$

SDZ004>011-016>023-039-040-261700-
NORTHEAST SOUTH DAKOTA

CITY           SKY/WX    TMP DP  RH WIND       PRES   REMARKS
ABERDEEN       SUNNY     68  51  54 W7        29.85S
WATERTOWN      SUNNY     68  49  50 W10       29.86R
BROOKINGS      SUNNY     68  49  50 NW12      29.86S
SISSETON         N/A     72  47  40 NW17      29.80S
$$

SDZ017-020-022-023-036>040-048>070-261700-
SOUTHEAST SOUTH DAKOTA

CITY           SKY/WX    TMP DP  RH WIND       PRES   REMARKS
SIOUX FALLS    MOSUNNY   73  53  49 NW7       29.88R
HURON          SUNNY     66  50  56 W3        29.88R
CHAMBERLAIN    SUNNY     70  55  59 SE6       29.90R
MITCHELL       SUNNY     70  49  47 VRB3      29.89R
YANKTON        CLOUDY    66  50  55 S5        29.91R
$$

ABBREVIATIONS USED IN REMARKS
   TC - TEMPERATURE IN CELSIUS
  WCI - WIND CHILL INDEX
   HX - HEAT INDEX
  VSB - VISIBILITY




USA.gov is the U.S. government's official web portal to all federal, state and local government web resources and services.